Rome, NY

10:10 AM EST on November 20, 2019 (GMT -0500)
Griffiss

Weather History for KRME - September, 2019

Change the Weather History Date:

Saturday, September 28, 2019

  Actual Average Record
Temperature  
Mean Temperature 70 °F -  
Max Temperature 79 °F 63 °F 79 °F (2010)
Min Temperature 60 °F 44 °F 30 °F (1989)
Cooling Degree Days 4    
Growing Degree Days 20 (Base 50)    
Moisture  
Dew Point 62 °F    
Average Humidity 85    
Maximum Humidity 100    
Minimum Humidity 60    
Precipitation  
Precipitation 0.14 in - - ()
Sea Level Pressure  
Sea Level Pressure 30.06 in    
Wind  
Wind Speed 8 mph (WNW)    
Max Wind Speed 13 mph    
Max Gust Speed -    
Visibility 9 miles    
Events Rain    
Averages and records for this station are not official NWS values.
T = Trace of Precipitation, MM = Missing Value Source: NWS Daily Summary

Daily Weather History Graph

Daily Weather History Graph

Search for Another Location

Airport or City:

Astronomy

Sep. 28, 2019 Rise Set
Actual Time 6:55 AM EDT 6:48 PM EDT
Civil Twilight 6:26 AM EDT 7:16 PM EDT
Nautical Twilight 5:53 AM EDT 7:49 PM EDT
Astronomical Twilight 5:20 AM EDT 8:23 PM EDT
Moon 6:26 AM EDT (9/28) 7:14 PM EDT (9/28)
Length of Visible Light 12h 49m
Length of Day
11h 53m
Waning Crescent, 0% of the Moon is Illuminated
Sep 28
Waning Crescent
Sep 28
New
Oct 5
First Quarter
Oct 13
Full
Oct 21
Last Quarter

Hourly Weather History & Observations

Time (EDT) Temp. Dew Point Humidity Pressure Visibility Wind Dir Wind Speed Gust Speed Precip Events Conditions
12:53 AM 62.1 °F 52.0 °F 70% 29.99 in 10.0 mi ENE 8.1 mph - N/A   Clear
1:53 AM 63.0 °F 52.0 °F 67% 30.00 in 10.0 mi ENE 9.2 mph - N/A   Partly Cloudy
2:53 AM 62.1 °F 53.1 °F 72% 29.99 in 10.0 mi East 9.2 mph - N/A   Mostly Cloudy
3:53 AM 63.0 °F 53.1 °F 70% 30.00 in 10.0 mi East 10.4 mph - N/A   Overcast
4:53 AM 62.1 °F 53.1 °F 72% 30.00 in 10.0 mi East 6.9 mph - N/A   Overcast
5:53 AM 61.0 °F 55.9 °F 83% 30.01 in 9.0 mi East 12.7 mph - 0.01 in Rain Light Rain
6:53 AM 60.1 °F 55.9 °F 86% 30.02 in 10.0 mi ESE 9.2 mph - 0.01 in   Overcast
7:53 AM 60.1 °F 57.9 °F 93% 30.03 in 9.0 mi East 5.8 mph - 0.01 in Rain Light Rain
8:53 AM 62.1 °F 60.1 °F 93% 30.02 in 10.0 mi SE 5.8 mph - 0.01 in   Mostly Cloudy
9:53 AM 66.9 °F 62.1 °F 84% 29.99 in 10.0 mi East 9.2 mph - N/A   Partly Cloudy
10:53 AM 71.1 °F 62.1 °F 73% 29.99 in 10.0 mi SSE 4.6 mph - N/A   Mostly Cloudy
11:53 AM 75.0 °F 63.0 °F 66% 29.99 in 10.0 mi South 5.8 mph - N/A   Partly Cloudy
12:53 PM 77.0 °F 63.0 °F 62% 29.99 in 10.0 mi West 11.5 mph - N/A   Mostly Cloudy
1:53 PM 77.0 °F 63.0 °F 62% 29.99 in 10.0 mi West 10.4 mph - N/A   Mostly Cloudy
2:53 PM 79.0 °F 64.0 °F 60% 30.00 in 10.0 mi West 11.5 mph - N/A   Scattered Clouds
3:53 PM 75.9 °F 63.0 °F 64% 30.01 in 10.0 mi WNW 11.5 mph - N/A   Mostly Cloudy
4:53 PM 73.9 °F 64.0 °F 71% 30.02 in 10.0 mi NW 9.2 mph - N/A   Mostly Cloudy
5:53 PM 72.0 °F 64.9 °F 78% 30.04 in 10.0 mi WNW 6.9 mph - N/A   Partly Cloudy
6:53 PM 70.0 °F 64.9 °F 84% 30.06 in 10.0 mi NW 5.8 mph - N/A   Overcast
7:53 PM 66.9 °F 66.0 °F 97% 30.09 in 5.0 mi WNW 8.1 mph - 0.02 in Rain Rain
8:04 PM 66.9 °F 66.9 °F 100% 30.10 in 5.0 mi WNW 5.8 mph - 0.01 in Rain Rain
8:19 PM 66.9 °F 66.9 °F 100% 30.10 in 6.0 mi WNW 3.5 mph - 0.02 in Rain Light Rain
8:31 PM 66.9 °F 66.9 °F 100% 30.10 in 6.0 mi West 4.6 mph - 0.03 in Rain Light Rain
8:53 PM 66.9 °F 66.9 °F 100% 30.10 in 9.0 mi West 4.6 mph - 0.05 in Rain Light Rain
9:09 PM 66.9 °F 66.9 °F 100% 30.11 in 8.0 mi West 5.8 mph - 0.00 in Rain Light Rain
9:38 PM 66.9 °F 66.9 °F 100% 30.12 in 10.0 mi West 5.8 mph - 0.02 in   Overcast
9:53 PM 66.9 °F 66.9 °F 100% 30.12 in 10.0 mi West 6.9 mph - 0.02 in   Overcast
10:16 PM 66.9 °F 66.9 °F 100% 30.14 in 10.0 mi West 6.9 mph - 0.00 in   Overcast
10:23 PM 66.9 °F 66.9 °F 100% 30.14 in 10.0 mi West 5.8 mph - 0.00 in   Overcast
10:48 PM 62.6 °F 62.6 °F 100% 30.15 in 5.0 mi North 6.9 mph - 0.00 in Rain Rain
10:53 PM 63.0 °F 62.1 °F 97% 30.15 in 4.0 mi North 8.1 mph - 0.01 in Rain Light Rain
11:32 PM 62.1 °F 61.0 °F 96% 30.16 in 10.0 mi WNW 3.5 mph - 0.00 in   Overcast
11:53 PM 63.0 °F 60.1 °F 90% 30.16 in 10.0 mi North 3.5 mph - 0.00 in   Overcast